TimeEST,TemperatureF,Dew PointF,Humidity,Sea Level PressureIn,VisibilityMPH,Wind Direction,Wind SpeedMPH,Gust SpeedMPH,PrecipitationIn,Events,Conditions,WindDirDegrees,DateUTC
12:01 AM,46.9,45.0,93,29.86,2.0,Calm,Calm,-,0.01,Rain,Light Rain,0,2013-12-03 05:01:00
12:12 AM,46.9,46.0,97,29.86,2.0,Calm,Calm,-,0.01,,Overcast,0,2013-12-03 05:12:00
12:53 AM,46.9,46.0,97,29.87,2.5,Calm,Calm,-,0.01,,Overcast,0,2013-12-03 05:53:00
1:13 AM,46.9,46.0,97,29.86,2.0,Calm,Calm,-,N/A,,Overcast,0,2013-12-03 06:13:00
1:23 AM,46.9,46.0,97,29.86,2.0,Calm,Calm,-,0.00,Rain,Light Rain,0,2013-12-03 06:23:00
1:31 AM,46.9,46.0,97,29.86,1.8,Calm,Calm,-,0.00,Rain,Light Rain,0,2013-12-03 06:31:00
1:49 AM,46.4,46.4,100,29.86,1.2,Calm,Calm,-,0.01,,Overcast,0,2013-12-03 06:49:00
1:53 AM,46.9,46.0,97,29.87,1.2,Calm,Calm,-,0.01,,Overcast,0,2013-12-03 06:53:00
2:01 AM,46.9,46.0,97,29.86,1.2,Calm,Calm,-,0.00,Rain,Light Rain,0,2013-12-03 07:01:00
2:22 AM,46.9,46.0,97,29.87,1.0,Calm,Calm,-,0.01,Rain,Light Rain,0,2013-12-03 07:22:00
2:48 AM,46.4,46.4,100,29.86,1.2,Calm,Calm,-,0.01,Rain,Light Rain,0,2013-12-03 07:48:00
2:53 AM,46.9,46.0,97,29.88,1.2,Calm,Calm,-,0.01,,Overcast,0,2013-12-03 07:53:00
3:53 AM,46.0,45.0,96,29.88,1.5,Calm,Calm,-,0.01,,Overcast,0,2013-12-03 08:53:00
4:53 AM,46.0,45.0,96,29.88,1.5,Calm,Calm,-,N/A,,Overcast,0,2013-12-03 09:53:00
5:13 AM,46.0,45.0,96,29.87,2.5,Calm,Calm,-,0.00,,Overcast,0,2013-12-03 10:13:00
5:29 AM,46.0,45.0,96,29.86,1.8,Calm,Calm,-,0.00,,Overcast,0,2013-12-03 10:29:00
5:53 AM,46.0,45.0,96,29.88,1.5,Calm,Calm,-,0.01,,Overcast,0,2013-12-03 10:53:00
6:53 AM,46.0,45.0,96,29.88,1.8,Calm,Calm,-,N/A,,Overcast,0,2013-12-03 11:53:00
7:39 AM,46.9,45.0,93,29.86,2.0,Calm,Calm,-,N/A,,Overcast,0,2013-12-03 12:39:00
7:53 AM,46.9,45.0,93,29.88,2.0,Calm,Calm,-,N/A,,Overcast,0,2013-12-03 12:53:00
8:06 AM,46.9,46.0,97,29.87,1.8,Calm,Calm,-,N/A,,Overcast,0,2013-12-03 13:06:00
8:53 AM,46.9,46.0,97,29.90,1.2,Calm,Calm,-,N/A,,Overcast,0,2013-12-03 13:53:00
9:19 AM,46.9,46.0,97,29.89,0.8,Calm,Calm,-,N/A,,Overcast,0,2013-12-03 14:19:00
9:37 AM,48.0,46.0,93,29.89,1.0,Variable,3.5,-,N/A,,Overcast,0,2013-12-03 14:37:00
9:53 AM,48.0,46.0,93,29.91,1.0,Calm,Calm,-,N/A,,Overcast,0,2013-12-03 14:53:00
10:18 AM,48.0,46.0,93,29.90,2.5,Calm,Calm,-,N/A,,Overcast,0,2013-12-03 15:18:00
10:34 AM,48.0,46.0,93,29.90,3.0,Calm,Calm,-,N/A,,Overcast,0,2013-12-03 15:34:00
10:37 AM,48.9,46.9,93,29.90,2.5,Calm,Calm,-,N/A,,Overcast,0,2013-12-03 15:37:00
10:53 AM,48.9,46.9,93,29.91,3.0,Calm,Calm,-,N/A,,Overcast,0,2013-12-03 15:53:00
11:04 AM,48.9,46.9,93,29.90,3.0,Calm,Calm,-,N/A,,Overcast,0,2013-12-03 16:04:00
11:17 AM,48.9,46.9,93,29.89,3.0,Calm,Calm,-,N/A,,Overcast,0,2013-12-03 16:17:00
11:41 AM,50.0,48.0,93,29.90,4.0,Calm,Calm,-,N/A,,Overcast,0,2013-12-03 16:41:00
11:53 AM,50.0,48.0,93,29.90,4.0,Calm,Calm,-,N/A,,Overcast,0,2013-12-03 16:53:00
12:17 PM,51.1,48.0,89,29.87,5.0,Calm,Calm,-,N/A,,Overcast,0,2013-12-03 17:17:00
12:53 PM,51.1,48.0,89,29.88,6.0,Calm,Calm,-,N/A,,Overcast,0,2013-12-03 17:53:00
1:02 PM,52.0,48.9,89,29.86,6.0,Calm,Calm,-,N/A,,Overcast,0,2013-12-03 18:02:00
1:51 PM,51.8,48.2,88,29.85,6.0,Calm,Calm,-,N/A,,Overcast,0,2013-12-03 18:51:00
1:53 PM,52.0,48.9,89,29.86,6.0,NE,3.5,-,N/A,,Overcast,40,2013-12-03 18:53:00
2:14 PM,53.1,48.9,86,29.85,6.0,Calm,Calm,-,N/A,,Overcast,0,2013-12-03 19:14:00
2:37 PM,52.0,48.9,89,29.85,6.0,Calm,Calm,-,N/A,,Overcast,0,2013-12-03 19:37:00
2:53 PM,52.0,48.9,89,29.86,6.0,NE,3.5,-,N/A,,Overcast,50,2013-12-03 19:53:00
3:53 PM,53.1,48.9,86,29.86,6.0,Calm,Calm,-,N/A,,Overcast,0,2013-12-03 20:53:00
4:14 PM,53.1,48.9,86,29.86,7.0,Calm,Calm,-,N/A,,Overcast,0,2013-12-03 21:14:00
4:53 PM,53.1,48.9,86,29.87,7.0,Calm,Calm,-,N/A,,Overcast,0,2013-12-03 21:53:00
5:53 PM,52.0,48.9,89,29.87,7.0,Calm,Calm,-,N/A,,Overcast,0,2013-12-03 22:53:00
6:53 PM,52.0,48.9,89,29.88,7.0,Calm,Calm,-,N/A,,Overcast,0,2013-12-03 23:53:00
7:53 PM,52.0,48.9,89,29.88,6.0,Calm,Calm,-,N/A,,Overcast,0,2013-12-04 00:53:00
8:43 PM,51.1,48.9,92,29.88,5.0,Calm,Calm,-,N/A,,Overcast,0,2013-12-04 01:43:00
8:53 PM,51.1,50.0,96,29.89,5.0,Calm,Calm,-,N/A,,Overcast,0,2013-12-04 01:53:00
9:19 PM,51.1,50.0,96,29.87,5.0,Calm,Calm,-,N/A,,Overcast,0,2013-12-04 02:19:00
9:36 PM,51.1,48.9,92,29.88,5.0,Calm,Calm,-,N/A,,Overcast,0,2013-12-04 02:36:00
9:53 PM,51.1,48.9,92,29.89,5.0,Calm,Calm,-,N/A,,Overcast,0,2013-12-04 02:53:00
10:53 PM,51.1,48.9,92,29.89,5.0,Calm,Calm,-,N/A,,Overcast,0,2013-12-04 03:53:00
11:53 PM,51.1,48.9,92,29.91,4.0,Calm,Calm,-,N/A,,Overcast,0,2013-12-04 04:53:00